Location: Barrio La Estación
(40.5892°N, 4.3617°W)
Time: 04:35:44
(UTC+00:00)

Daily predictions for brighter satellites

Satellite Brightness Start Highest point End
(mag) Time Altitude Azimuth Time Altitude Azimuth Time Altitude Azimuth
Cosmos 2263 Rocket 4.5 00:02:13 10° W 00:03:30 11° W 00:03:30 11° W
Meteor 1-22 Rocket 4.3 00:03:04 10° NNW 00:09:00 75° W 00:09:05 74° WSW
Cosmos 1726 4.5 00:09:34 10° NNW 00:10:58 19° NW 00:10:58 19° NW
Cosmos 372 Rocket 4.2 00:13:48 62° NW 00:13:48 62° NW 00:18:34 10° NNE
ASTEX 1 4.0 00:08:38 10° NNE 00:12:41 49° ENE 00:12:41 49° ENE
ATLAS CENTAUR R/B 2.3 00:10:21 10° NNW 00:14:20 55° N 00:14:20 55° N
Cosmos 2278 Rocket 4.0 00:11:04 10° N 00:15:39 24° NE 00:18:23 17° E
ALOS 2 3.9 00:17:44 34° NW 00:17:44 34° NW 00:20:37 10° NNW
Cosmos 1626 4.2 00:27:00 26° NNE 00:27:00 26° NNE 00:28:45 10° NNE
Okean 2 Rocket 3.9 00:21:29 10° N 00:25:02 49° NNE 00:25:02 49° NNE
Cosmos 2333 Rocket 2.8 00:32:04 45° W 00:32:43 47° WNW 00:38:11 10° NNE
ATLAS 3B R/B 3.8 00:26:22 10° NW 00:32:35 32° WSW 00:32:35 32° WSW
Cosmos 2322 Rocket 4.4 00:30:49 12° W 00:33:59 18° NW 00:37:48 10° N
Cosmos 2322 3.8 00:34:10 63° W 00:34:25 64° WNW 00:40:07 10° NNE
Cosmos 1867 3.6 00:36:15 79° NNE 00:36:15 79° NNE 00:41:26 10° NNE
SL-08 R/B 4.3 00:32:10 10° N 00:38:28 84° E 00:38:59 76° SSE
NOSS 3-1 (C) 4.0 00:32:37 10° NW 00:40:21 88° WSW 00:43:10 49° SSE
Cosmos 1844 Rocket 4.1 00:40:02 10° NW 00:43:31 25° W 00:43:31 25° W
Nimbus 7 Rocket 4.5 00:42:37 10° N 00:48:25 62° WNW 00:48:53 60° W
Cosmos 1417 Rocket 4.3 00:50:54 77° SSW 00:51:23 88° W 00:57:37 10° N
Cosmos 2219 Rocket 3.1 00:59:22 35° W 01:00:14 37° WNW 01:05:25 10° N
Meteor 1-16 Rocket 4.1 00:58:18 10° N 01:04:16 88° E 01:04:41 79° SSE
Okean 1 Rocket 3.6 01:02:58 10° N 01:06:38 58° NNE 01:06:38 58° NNE
USA 32 4.2 01:08:02 62° E 01:08:09 62° E 01:13:21 10° NNE
Cosmos 2315 Rocket 4.3 01:07:44 52° SE 01:08:52 59° E 01:15:07 10° NNE
SL-14 R/B 4.4 01:11:29 41° NNE 01:11:29 41° NNE 01:14:06 10° N
USA 305 3.9 01:11:44 42° NE 01:11:44 42° NE 01:14:34 10° NE
Cosmos 1709 Rocket 4.1 01:07:03 10° N 01:13:09 64° E 01:14:26 52° SE
S3M 4.0 01:17:44 61° WSW 01:18:36 67° W 01:24:57 10° N
Cosmos 1300 3.9 01:16:17 10° N 01:18:58 40° NNE 01:18:58 40° NNE
Cosmos 1386 Rocket 4.4 01:16:51 10° NNW 01:22:46 63° W 01:23:12 61° WSW
CZ-2D R/B 3.0 01:18:19 10° NNE 01:23:18 38° E 01:24:02 36° ESE
COSMOS 2428 3.8 01:24:40 31° W 01:25:53 34° WNW 01:31:01 10° N
Cosmos 839 Rocket 4.4 01:19:55 10° NNW 01:26:23 75° ENE 01:31:07 25° SE
Cosmos 2237 Rocket 2.0 01:26:10 77° SSW 01:26:37 88° WNW 01:32:22 10° NNE
Cosmos 332 Rocket 4.0 01:27:04 63° E 01:27:04 63° E 01:31:35 10° NNE
Lacrosse 5 rocket 3.7 01:29:07 14° E 01:29:07 14° E 01:30:09 10° E
Cosmos 1437 Rocket 4.3 01:27:40 10° NNW 01:29:41 28° NW 01:29:41 28° NW
Cosmos 1953 3.5 01:29:55 10° NNW 01:32:30 35° NW 01:32:30 35° NW
CZ-4C R/B 3.1 01:31:47 10° NW 01:39:15 60° WSW 01:41:38 45° S
Cosmos 2150 Rocket 4.4 01:39:41 47° W 01:40:03 48° WNW 01:45:04 10° N
Cosmos 2084 Rocket 4.2 01:42:19 40° ENE 01:42:19 40° ENE 01:45:01 10° NE
SME Rocket 3.0 01:45:41 78° NNE 01:45:41 78° NNE 01:50:03 10° NNW
USA 267 4.0 01:47:23 33° WSW 01:47:23 33° WSW 01:51:59 10° WNW
Cosmos 1455 Rocket 3.2 01:42:19 10° N 01:46:47 67° E 01:46:57 66° E
EO 1 Delta rocket 4.2 01:45:22 10° N 01:49:56 55° WNW 01:50:14 54° W
Lacrosse 5 2.1 01:49:59 56° SE 01:50:06 56° SE 01:55:05 10° NE
USA 306 3.7 01:52:08 42° NW 01:52:26 43° NW 01:56:26 10° NE
Cosmos 1943 Rocket 3.4 01:48:06 10° N 01:53:24 39° ENE 01:58:40 10° SE
USA 307 3.5 01:55:04 46° NW 01:55:19 47° NW 01:59:23 10° NE
Resurs 1-4 Rocket 2.0 01:50:36 10° NNE 01:55:53 79° ESE 01:56:52 59° S
NOSS 2-2 (C) 4.4 01:50:27 10° NW 01:55:57 71° WSW 01:59:14 34° SSE
USA 229 DEB 3.9 01:48:45 10° NW 01:56:11 67° WSW 01:59:48 34° S
USA 229 3.9 01:48:51 10° NW 01:56:16 68° WSW 01:59:58 34° S
Cosmos 1975 Rocket 3.0 01:59:45 69° WNW 01:59:45 69° WNW 02:04:08 10° N
Cosmos 2278 Rocket 2.3 01:54:31 10° NNW 02:00:01 51° WSW 02:00:11 51° WSW
COSMOS 2455 3.9 02:00:50 28° SE 02:02:50 35° ESE 02:08:14 10° NE
Cosmos 1025 Rocket 3.0 02:10:50 65° W 02:10:53 65° W 02:15:11 10° N
SL-16 R/B 2.2 02:11:47 48° S 02:13:22 74° ESE 02:19:03 10° NNE
ADEOS II 2.4 02:08:40 10° NNE 02:13:52 59° ESE 02:15:39 39° SSE
GP-B 4.1 02:10:25 10° NNW 02:14:10 32° WNW 02:14:10 32° WNW
Cosmos 2369 Rocket 4.5 02:10:08 10° N 02:14:33 23° NE 02:18:56 10° ESE
AQUA 3.8 02:11:40 10° NNE 02:16:27 76° ESE 02:17:33 52° S
IDEFIX/ARIANE 42P 3.1 02:11:22 10° NNE 02:16:31 51° E 02:18:39 32° SSE
NPP 3.6 02:12:38 10° NNE 02:18:03 82° WNW 02:19:36 48° SSW
Meteor 1-28 Rocket 4.0 02:20:38 33° SE 02:21:52 47° ENE 02:25:28 10° N
Cosmos 2154 Rocket 4.5 02:18:07 10° N 02:24:24 59° E 02:29:36 15° SSE
USA 308 4.3 02:24:26 23° WNW 02:26:01 30° NNW 02:29:46 10° NE
Meteor 1-24 Rocket 3.8 02:26:29 43° SW 02:28:09 63° W 02:33:37 10° N
CRYOSAT 2 4.3 02:29:16 38° S 02:31:08 86° E 02:36:02 10° N
SL-16 R/B 2.5 02:28:36 32° S 02:31:38 71° WSW 02:37:53 10° NNW
Cosmos 1544 Rocket 3.4 02:28:33 10° NNW 02:32:59 74° W 02:33:55 53° SSW
EO 1 Del DPAF 3.0 02:30:16 10° NNE 02:33:46 69° ESE 02:34:08 62° SE
IRS-1D 4.3 02:32:56 10° NNE 02:38:05 48° E 02:41:19 21° SSE
Helios 1B rocket 4.5 02:39:41 10° NE 02:42:53 22° E 02:45:55 11° SE
ATLAS 5 CENTAUR R/B 4.5 02:41:22 10° WNW 02:43:56 14° W 02:43:56 14° W
Cosmos 1271 Rocket 3.2 02:41:29 10° N 02:45:16 56° E 02:47:32 22° SSE
Meteor 2-5 Rocket 4.5 02:43:29 31° WSW 02:45:22 39° WNW 02:50:42 10° N
Cosmos 1455 2.0 02:42:03 10° NNW 02:45:43 66° W 02:46:11 58° SW
Cosmos 614 Rocket 4.3 02:41:18 10° NNW 02:46:28 66° ENE 02:51:39 10° SSE
Helios 1A 2.9 02:45:01 31° SSE 02:46:57 90° ENE 02:51:12 10° NNW
Cosmos 2074 Rocket 4.1 02:43:47 10° NNW 02:49:58 61° W 02:53:29 27° SSW
Cosmos 292 Rocket 3.7 02:49:20 35° SSW 02:51:23 83° ESE 02:56:13 10° NNE
Cosmos 1295 Rocket 4.5 02:53:57 10° N 03:00:18 79° W 03:05:40 15° S
CZ-2D R/B 3.4 02:58:41 10° N 03:03:08 27° WNW 03:05:21 21° WSW
Cosmos 2184 Rocket 4.3 02:57:43 10° NNW 03:03:41 49° W 03:07:09 24° SSW
Lacrosse 5 rocket 1.7 03:04:38 31° W 03:06:11 50° NW 03:10:09 10° NE
Cosmos 1610 Rocket 4.4 03:02:19 10° NNW 03:08:26 70° W 03:13:33 15° S
Cosmos 1943 3.7 03:05:12 17° S 03:09:24 55° ESE 03:14:57 10° NNE
COSMOS 2441 4.3 03:05:33 10° N 03:10:26 82° WNW 03:13:27 23° SSW
Cosmos 2237 Rocket 4.3 03:08:24 10° W 03:11:32 15° NW 03:14:42 10° NNW
MOS 1 Rocket 4.0 03:13:28 27° WSW 03:14:22 29° W 03:18:07 10° NW
DNEPR-1 R/B 4.3 03:12:02 20° S 03:14:34 44° ESE 03:18:49 10° NE
Cosmos 2181 Rocket 4.5 03:15:37 10° S 03:21:45 61° E 03:27:50 10° NNE
Cosmos 1703 3.7 03:22:17 26° SW 03:24:01 43° W 03:27:47 10° N
Cosmos 962 Rocket 4.4 03:17:58 10° N 03:24:07 87° W 03:30:13 10° S
Cosmos 2228 3.1 03:25:07 10° NNW 03:29:24 57° W 03:33:01 14° S
CZ-2C R/B 3.4 03:24:56 10° NNE 03:29:52 47° E 03:34:38 10° S
Cosmos 2058 Rocket 4.5 03:26:33 10° N 03:30:41 39° ENE 03:34:45 10° SSE
Cosmos 407 Rocket 4.3 03:26:11 10° N 03:31:25 56° ENE 03:36:34 10° SE
Cosmos 2297 4.1 03:26:16 10° NW 03:31:41 43° WSW 03:37:02 10° S
Lacrosse 5 3.2 03:29:10 12° W 03:33:19 30° NNW 03:37:50 10° NNE
Resurs 1-4 Rocket 4.1 03:32:22 10° NNW 03:35:01 14° WNW 03:37:38 10° W
Cosmos 1943 Rocket 3.0 03:32:07 10° NW 03:36:58 30° WSW 03:41:18 12° SSW
FENGYUN 3A 3.9 03:31:59 10° NNE 03:37:21 69° ESE 03:42:43 10° S
MOS 1-B Rocket 3.8 03:34:00 10° SSE 03:39:39 87° WSW 03:45:22 10° NNW
ALOS 2.8 03:35:28 10° NNE 03:40:05 59° E 03:44:40 10° S
Meteor 1-21 Rocket 4.5 03:39:48 14° SSW 03:44:28 53° WNW 03:49:56 10° N
Meteor 1-29 4.3 03:41:46 10° NNE 03:44:48 36° E 03:47:50 10° SSE
Cosmos 1140 Rocket 3.7 03:39:51 10° NNW 03:45:08 78° ENE 03:50:22 10° SSE
COSMOS 2455 3.7 03:43:58 14° WSW 03:48:40 39° NW 03:54:18 10° NNE
ADEOS II 3.8 03:49:34 10° NNW 03:53:02 18° WNW 03:56:30 10° WSW
SeaSat 1 3.2 03:49:11 10° NE 03:54:00 51° ESE 03:58:47 10° S
IDEFIX/ARIANE 42P 4.1 03:51:51 10° NNW 03:55:41 21° WNW 03:59:27 10° WSW
Cosmos 1606 Rocket 3.9 03:51:56 10° NNW 03:56:07 44° W 04:00:16 10° SSW
Cosmos 1892 3.0 03:53:20 10° S 03:57:05 68° E 04:00:52 10° NNE
SL-16 R/B 4.0 03:54:20 10° W 03:58:07 18° NW 04:01:55 10° N
Cosmos 2369 Rocket 2.3 03:53:27 10° NNW 03:58:53 53° WSW 04:04:16 10° S
GPS 2-04 Rocket1 3.9 03:57:56 12° SSW 04:00:17 23° SSE 04:03:09 10° ESE
NOSS 3-3 (A) 4.1 03:56:55 12° SW 04:02:01 59° NW 04:08:20 10° NNE
NOSS 3-3 (C) 4.1 03:57:00 12° SW 04:02:06 60° NW 04:08:25 10° NNE
Cosmos 1624 Rocket 4.1 03:57:50 10° SSW 04:03:09 86° ESE 04:08:29 10° NNE
Cosmos 1023 Rocket 4.5 03:58:35 10° NNW 04:03:51 68° WSW 04:09:02 10° S
ARIANE 5 R/B 2.6 03:59:28 10° NNE 04:04:33 83° ESE 04:09:34 10° SSW
Cosmos 2341 Rocket 4.3 03:58:47 10° NNW 04:04:54 49° W 04:11:00 10° SSW
Cosmos 2366 rocket 4.0 04:01:12 10° NNW 04:07:19 69° W 04:13:27 10° S
SL-08 R/B 4.1 04:03:26 10° SSE 04:07:55 56° ENE 04:12:27 10° N
Okean 1-7 Rocket 3.8 04:05:34 10° S 04:09:58 74° E 04:14:22 10° NNE
Cosmos 1656 Rocket 3.8 04:08:36 10° NW 04:13:48 49° WSW 04:18:59 10° S
In-Cosmos 22 Rocket 4.5 04:08:14 10° S 04:13:59 79° E 04:19:50 10° NNE
CZ-2D R/B 3.5 04:10:19 10° NNE 04:14:21 78° ESE 04:18:17 10° S
Cosmos 2056 Rocket 3.5 04:09:23 10° SSW 04:14:31 76° WNW 04:19:48 10° NNE
SL-8 Rocket 4.3 04:09:05 10° NNW 04:15:08 49° W 04:21:09 10° SSW
IRS-P3 4.2 04:10:27 10° N 04:15:47 72° WNW 04:21:05 10° SSW
Helios 1B rocket 3.6 04:14:32 10° N 04:18:00 28° WNW 04:21:27 10° SW
Cosmos 1603 4.3 04:15:35 10° SW 04:20:55 44° WNW 04:26:20 10° NNE
Cosmos 2251 Rocket 4.4 04:17:02 10° NW 04:21:28 28° W 04:25:55 10° SSW
Cosmos 1408 3.0 04:19:31 10° SSW 04:23:00 43° W 04:26:29 10° N
ATLAS 2A CENTAUR R/B 4.1 04:23:40 10° WSW 04:34:44 29° SSW 04:39:51 10° SE
